COSMOS 1275 DEB, 12701

Orbit data source: Space-Track

COSMOS 1275 DEB, 12701 is space debris in LEO originally from a launch on Thu, 04 Jun 1981 UTC launched from the Plesetsk Missile And Space Complex (PKMTR). Debris objects in space refer to the collection of defunct objects orbiting the Earth. Examples of debris include non-operational satellites, rocket bodies, and fragments generated from explosions, collisions, or faulty payload assembly.

Loading next visibility...
Identifier
12701, 1981-053AV
Orbit
LEO
Country
Flag of CISCIS
Related business
Manufacturer
Unknown
Mission
Spacecraft
Bus & Motor
Unknown
Mass
Unknown
Launch date (UTC)
1981-06-04 (45 years ago)
Launch vehicle
Unknown
Launch site
Plesetsk Missile And Space Complex (PKMTR)
Object type
Payload
Rocket body
Debris
Shape & HBR
Unknown shape, 0.2 m
Radar Cross Section
Small (<0.1 m²)

Expand to show TLE details & history
Last TLE update: 13 hours ago

TLE from 13 hours ago
0 COSMOS 1275 DEB
1 12701U 81053AV  26035.46302773  .00000959  00000-0  72602-3 0  9999
2 12701  82.8495  16.8424 0040687  32.2461  93.5927 13.92664299245857
Epoch: 2026-02-04T11:06Z
TLE epoch observation values (Epoch: 2026-02-04T11:06:45.595Z)
Latitude
53.19218°
Longitude
-114.07695°
Altitude
929.983 km
Speed
7.391 km/s
True Right ascension
12h 28m 58s
True Declination
53° 01' 51"
Sunlit
Object was in full shadow at epoch
Visualization orbit readout
Latitude
Unknown
Longitude
Unknown
Altitude
Unknown
Speed
Unknown
Apparent Right ascension
Unknown
Apparent Declination
Unknown
Sunlit
N/A
Visualization observer readout
Local Sidereal Time
01:41:07
Azimuth
Unknown
Elevation
Unknown
Doppler factor
Unknown
Orbital elements
Apogee altitude
946.116 km
Perigee altitude
886.757 km
Semi-major axis
7,294.574 km
Eccentricity
0.00407
Inclination
82.8495°
RAAN
16.8424°
Arg. of periapsis
32.2461°
True anomaly
94.05787°
Mean anomaly
93.5927°
Eccentric anomaly
93.8253°
Mean motion
3.48372 °/min
Orbital period
103.34 mins
BSTAR
0.00072602
Loading maneuver chart data...
Computing Atmospheric mass density...

Documentation

Showing up to 5 results
|